This demonstration page uses our WeatherBlox Daily Observations layout. Learn more.

Left ArrowRight Arrow

38.88101, -77.10428

Hourly Observations for July 21, 2020

Temp ( °F °C ) Dew Point ( °F °C ) Humidity (%) Winds ( mph kmh ) Pressure ( in mb ) Visibility ( mi km ) Precip ( " mm )
12:52 am 00:52 Mostly Cloudy 80 26.7 74 23.3 82 82 Calm 29.96 1014 10 16.0934 0 0
1:52 am 01:52 Partly Cloudy 81 27.2 72 22.2 74 74 WNW 3 6 29.96 1014 10 16.0934 0 0
2:52 am 02:52 Partly Cloudy 80 26.7 73 22.8 79 79 NNW 7 11 29.96 1014 10 16.0934 0 0
3:52 am 03:52 Partly Cloudy 79 26.1 73 22.8 82 82 NNW 6 9 29.96 1015 10 16.0934 0 0
4:52 am 04:52 Mostly Cloudy 80 26.7 72 22.2 76 76 N 6 9 29.98 1015 10 16.0934 0 0
5:52 am 05:52 Mostly Cloudy 79 26.1 71 21.7 77 77 NNW 7 11 29.99 1016 10 16.0934 0 0
6:52 am 06:52 Partly Cloudy 81 27.2 71 21.7 72 72 NNE 7 11 30 1016 10 16.0934 0 0
7:52 am 07:52 Partly Cloudy 84 28.9 69 20.6 61 61 ENE 5 7 30.02 1017 10 16.0934 0 0
8:52 am 08:52 Partly Cloudy 86 30 67 19.4 53 53 NE 6 9 30.03 1017 10 16.0934 0 0
9:52 am 09:52 Mostly Sunny 90 32.2 67 19.4 47 47 NE 6 9 30.03 1017 10 16.0934 0 0
10:52 am 10:52 Mostly Sunny 90 32.2 65 18.3 44 44 SE 3 6 30.04 1017 10 16.0934 0 0
11:52 am 11:52 Mostly Sunny 92 33.3 67 19.4 44 44 SSW 7 11 30.04 1017 10 16.0934 0 0
12:52 pm 12:52 Mostly Sunny 93 33.9 67 19.4 42 42 SSW 8 13 30.03 1017 10 16.0934 0 0
1:52 pm 13:52 Partly Cloudy 94 34.4 69 20.6 44 44 S 8 13 30.01 1016 10 16.0934 0 0
2:52 pm 14:52 Partly Cloudy 94 34.4 70 21.1 46 46 SSE 7 11 30 1016 10 16.0934 0 0
3:52 pm 15:52 Partly Cloudy 96 35.6 68 20 40 40 S 6 9 29.98 1015 10 16.0934 0 0
5:52 pm 17:52 Mostly Cloudy 95 35 72 22.2 47 47 SSE 9 15 29.95 1014 10 16.0934 0 0
6:28 pm 18:28 Mostly Cloudy with Thunderstorms 93 33.9 70 21.1 47 47 SSE 10 17 29.96 1014 10 16.0934 0 0
6:52 pm 18:52 Mostly Cloudy with Thunderstorms 92 33.3 70 21.1 49 49 SSE 9 15 29.97 1015 10 16.0934 0 0
7:11 pm 19:11 Windy with Storms Likely 81 27.2 74 23.3 79 79 SSW 20 31 29.97 1015 2.5 4.02335 0.001 0.001
7:23 pm 19:23 Mostly Cloudy with Light Thunderstorms 79 26.1 71 21.7 77 77 S 10 17 29.95 1014 9 14.48406 0.001 0.001
7:37 pm 19:37 Mostly Cloudy with Nearby Thunderstorms 79 26.1 72 22.2 79 79 S 9 15 29.97 1015 10 16.0934 0.001 0.001
7:46 pm 19:46 Mostly Cloudy with Thunderstorms 79 26 72 22 79 79 SSW 12 19 29.98 1015 10 16.0934 0.001 0.001
7:52 pm 19:52 Mostly Cloudy with Thunderstorms 79 26 72 22 79 79 VRB 6 9 30.02 1017 10 16.0934 0.001 0.001
8:11 pm 20:11 Mostly Cloudy with Nearby Thunderstorms 83 28.3 70 21.1 65 65 S 7 11 30 1016 10 16.0934 0 0
8:24 pm 20:24 Cloudy with Light Thunderstorms 82 27.8 71 21.7 69 69 WSW 12 19 30.04 1017 10 16.0934 0.001 0.001
8:33 pm 20:33 Cloudy with Heavy Thunderstorms 79 26.1 72 22.2 79 79 WSW 16 26 30.05 1018 5 8.0467 0.01 0.254
8:39 pm 20:39 Cloudy with Heavy Thunderstorms 77 25 73 22.8 88 88 WSW 15 24 30.04 1017 2 3.21868 0.06 1.524
8:41 pm 20:41 Cloudy with Heavy Thunderstorms 76 24.4 73 22.8 91 91 SW 14 22 30.04 1017 1.5 2.41401 0.1 2.54
8:48 pm 20:48 Cloudy with Heavy Thunderstorms 75 24 72 22 89 89 W 6 9 30.04 1017 1 1.60934 0.31 7.874
8:52 pm 20:52 Cloudy with Heavy Thunderstorms 76 24.4 72 22.2 88 88 Calm 30.03 1017 1 1.60934 0.38 9.652
8:54 pm 20:54 Cloudy with Heavy Thunderstorms 76 24.4 72 22.2 88 88 Calm 30.03 1017 1.25 2.011675 0.03 0.762
9:00 pm 21:00 Mostly Cloudy with Thunderstorms 76 24.4 72 22.2 88 88 NNW 7 11 30.03 1017 2.5 4.02335 0.07 1.778
9:02 pm 21:02 Mostly Cloudy with Light Thunderstorms 76 24.4 73 22.8 91 91 NW 5 7 30.04 1017 4 6.43736 0.07 1.778
9:09 pm 21:09 Mostly Cloudy with Light Thunderstorms 76 24.4 73 22.8 91 91 N 9 15 30.05 1018 10 16.0934 0.08 2.032
9:17 pm 21:17 Mostly Cloudy with Light Rain 76 24.4 73 22.8 91 91 N 9 15 30.05 1018 10 16.0934 0.08 2.032
9:28 pm 21:28 Mostly Cloudy with Nearby Thunderstorms 77 25 73 22.8 88 88 Calm 30.04 1017 10 16.0934 0.08 2.032
9:43 pm 21:43 Mostly Cloudy 77 25 74 23.3 90 90 SW 9 15 30.06 1018 10 16.0934 0.08 2.032
9:52 pm 21:52 Mostly Cloudy 77 25 74 23.3 90 90 SW 7 11 30.05 1018 10 16.0934 0.08 2.032
10:52 pm 22:52 Cloudy with Light Rain 77 25 73 22.8 88 88 S 9 15 30.02 1017 10 16.0934 0.02 0.508
11:52 pm 23:52 Cloudy 77 25 73 22.8 88 88 Calm 30.04 1017 10 16.0934 0.04 1.016

Powered by AerisWeather